User: anonymous   Login
Location: S�tio Afonso Gruber
(26.1760°S, 49.5250°W)
Time: 15:47:00
(UTC+00:00)
Language:

CZ-4 R/B - Orbit

View from above orbital plane
View from above orbital plane
View from above satellite
View from above satellite

Ground track
Ground track

The orbit data is extracted from the following two-line orbital elements,

1 29507U 06046C   20225.50160651 -.00000702  00000-0 -49313-4 0  9999
2 29507  97.7504 247.2760 0045637 336.4427  23.4706 15.00634166753828
Epoch (UTC): 12 August 2020 12:02:18
Eccentricity: 0.0045637
inclination: 97.7504°
perigee height: 533 km
apogee height: 596 km
right ascension of ascending node: 247.2760°
argument of perigee: 336.4427°
revolutions per day: 15.00634166
mean anomaly at epoch: 23.4706°
orbit number at epoch: 75382

The dashed part of the orbit path shows where the satellite is in the earth's shadow,  

DLR